Lapse_Rate
7.5 7.5 7.5 7.6 7.5 7.2 7.2 7.4 8.0 8.6 8.1 7.6 7.7 7.7 7.3 7.0 7.5 7.1 6.9 7.0 6.9 6.9 6.8 6.7 6.5 6.3 6.4 6.5 6.6 6.6 6.5 6.5 6.3 6.4 6.1 6.2 6.1 6.1 6.1 6.2 6.3 6.3 6.3 6.3 6.4 6.4 6.4 6.4 6.4
7.3 7.3 7.2 7.2 7.2 7.5 8.0 8.3 8.4 8.2 7.7 7.5 7.7 7.7 7.1 6.7 7.1 7.5 7.3 7.1 7.1 7.1 6.8 6.8 6.6 6.4 6.4 6.6 6.6 6.7 6.6 6.5 6.5 6.3 6.3 6.3 6.3 6.4 6.4 6.4 6.4 6.4 6.4 6.5 6.5 6.4 6.4 6.4 6.4
7.2 7.0 7.1 6.8 6.9 7.3 8.2 8.3 7.7 7.5 7.7 7.5 7.5 7.5 7.0 6.6 7.2 7.4 7.4 7.1 7.1 7.2 6.9 6.8 6.7 6.5 6.4 6.5 6.6 6.6 6.7 6.6 6.6 6.5 6.3 6.4 6.4 6.5 6.5 6.5 6.4 6.5 6.5 6.5 6.6 6.6 6.5 6.5 6.4
7.0 6.9 6.7 6.6 7.3 7.9 7.9 7.6 7.5 7.0 7.1 7.4 7.5 6.8 6.9 6.8 6.9 7.1 7.3 7.2 6.9 7.1 7.1 6.8 6.8 6.6 6.4 6.3 6.5 6.7 6.6 6.6 6.7 6.7 6.6 6.4 6.5 6.6 6.6 6.6 6.6 6.5 6.5 6.6 6.6 6.6 6.6 6.5 6.5
6.7 6.6 6.5 6.8 7.1 7.5 7.6 7.2 7.6 7.4 6.4 6.9 7.4 6.3 6.1 6.9 6.7 6.9 6.8 7.0 6.8 6.7 7.2 6.8 6.8 6.7 6.5 6.3 6.3 6.5 6.6 6.6 6.6 6.7 6.7 6.6 6.5 6.6 6.7 6.7 6.6 6.6 6.6 6.6 6.6 6.7 6.7 6.6 6.5
6.6 6.3 6.4 7.0 7.4 7.3 6.7 6.8 7.3 6.9 6.0 6.0 6.7 6.5 6.3 6.1 6.9 6.8 6.8 6.7 6.7 6.8 7.1 7.0 6.7 6.7 6.5 6.4 6.3 6.3 6.5 6.6 6.6 6.7 6.7 6.8 6.7 6.6 6.7 6.7 6.6 6.6 6.6 6.7 6.7 6.6 6.6 6.6 6.5
6.6 5.8 6.4 6.8 7.0 6.5 6.0 6.7 6.2 6.3 6.2 5.7 5.7 6.6 5.8 5.4 6.4 6.6 6.7 6.7 6.6 6.4 6.9 7.2 6.9 6.9 6.7 6.4 6.3 6.3 6.3 6.5 6.5 6.6 6.6 6.7 6.8 6.7 6.6 6.7 6.7 6.6 6.6 6.7 6.7 6.7 6.6 6.6 6.5
6.5 6.3 6.3 6.3 6.2 5.9 5.6 5.7 5.5 5.7 6.0 5.7 5.7 6.0 6.2 5.1 5.3 6.5 6.6 6.6 6.5 6.3 6.5 6.6 6.6 6.7 6.7 6.7 6.5 6.4 6.3 6.4 6.6 6.5 6.6 6.6 6.7 6.8 6.7 6.6 6.7 6.7 6.7 6.7 6.7 6.6 6.6 6.6 6.5
6.5 6.3 6.4 6.1 5.8 5.7 5.4 5.7 5.2 5.0 5.4 5.2 5.3 5.5 6.0 5.9 5.6 6.2 6.4 6.5 6.5 6.3 5.9 6.0 6.5 6.5 6.8 6.6 6.5 6.3 6.3 6.4 6.5 6.6 6.5 6.5 6.6 6.7 6.8 6.7 6.7 6.7 6.7 6.7 6.7 6.6 6.6 6.5 6.5
6.6 6.1 6.2 6.1 6.0 5.9 6.0 5.9 5.6 5.5 5.4 5.1 4.8 4.4 5.1 5.9 5.9 6.0 6.3 6.1 6.4 6.5 6.3 5.8 6.4 6.6 6.5 6.4 6.4 6.3 6.2 6.1 6.4 6.4 6.5 6.5 6.5 6.6 6.8 6.8 6.7 6.7 6.7 6.7 6.6 6.6 6.6 6.5 6.5
6.5 6.4 6.5 6.3 6.3 6.0 5.8 5.7 5.6 5.6 5.6 5.5 5.0 5.4 5.3 5.6 5.6 5.6 5.8 6.1 6.0 6.3 6.4 6.2 6.1 6.5 6.5 6.3 6.3 6.4 6.3 6.2 6.3 6.5 6.2 6.6 6.4 6.6 6.5 6.6 6.7 6.7 6.7 6.7 6.7 6.6 6.5 6.5 6.5
6.5 6.6 6.7 6.6 6.5 6.4 6.2 6.0 6.1 6.0 5.9 5.7 5.5 5.6 5.6 5.4 5.5 5.3 5.4 5.6 5.6 5.9 6.1 5.8 6.0 6.1 6.1 5.9 6.1 6.3 6.3 6.1 6.0 6.3 6.1 6.3 6.6 6.3 6.2 6.3 6.5 6.6 6.6 6.5 6.5 6.5 6.5 6.4 6.5
6.5 6.7 6.8 6.6 6.6 6.5 6.4 6.3 6.6 6.4 6.2 5.8 5.8 5.7 5.7 5.5 5.5 5.6 5.5 5.5 5.7 5.4 5.8 5.7 6.0 6.2 5.9 6.1 6.5 5.9 6.1 5.8 5.9 6.1 5.8 6.2 6.5 6.0 6.1 6.1 6.3 6.3 6.4 6.3 6.4 6.4 6.4 6.4 6.5
6.5 6.6 6.7 6.6 6.5 6.5 6.5 6.3 6.5 6.2 6.3 6.2 6.1 6.0 5.9 5.9 5.7 5.5 5.7 5.5 5.5 5.5 5.3 5.5 5.6 5.6 6.0 6.2 6.2 6.1 5.9 5.6 5.8 6.2 5.8 6.0 6.2 6.2 5.9 6.0 6.0 6.0 6.0 6.2 6.2 6.3 6.3 6.3 6.3
6.5 6.5 6.3 6.2 6.5 6.4 6.4 6.0 6.1 6.2 6.2 6.2 6.0 5.9 5.9 5.9 5.9 5.8 5.7 6.0 5.5 5.7 5.5 5.3 5.5 5.5 5.5 6.4 5.9 5.8 6.3 5.8 5.9 6.0 5.7 5.8 6.1 6.0 6.1 6.0 6.0 6.0 6.0 6.1 6.2 6.2 6.4 6.3 6.2
6.5 6.4 6.3 6.0 5.9 6.2 6.5 6.8 6.0 6.1 6.2 6.1 6.0 5.7 5.4 5.4 5.5 5.6 5.8 5.8 6.2 5.9 6.0 5.5 5.4 5.5 5.4 5.6 5.4 5.5 6.1 6.0 6.2 5.9 5.9 5.6 5.9 5.9 6.0 6.0 6.1 6.0 6.0 6.0 6.1 6.0 6.2 6.2 6.2
6.4 6.2 6.1 5.9 5.8 5.7 5.9 6.8 6.5 6.2 5.9 6.2 5.8 4.9 4.8 4.7 5.3 5.4 5.5 5.7 6.4 6.2 6.2 6.1 5.3 5.7 5.5 5.4 5.1 5.5 5.5 6.3 6.2 6.0 6.2 5.7 5.7 5.9 5.9 5.9 5.9 6.0 5.9 5.8 5.8 5.9 5.9 6.1 6.1
6.5 6.4 6.3 5.7 5.9 5.9 6.0 6.6 6.5 6.2 5.8 5.8 5.2 5.0 5.1 5.2 5.1 5.4 5.7 5.8 6.2 6.4 6.4 6.5 6.1 5.7 6.1 5.4 5.2 5.3 5.3 5.5 5.0 5.4 5.6 5.4 5.4 5.8 5.9 5.9 5.8 5.7 5.7 5.7 5.7 5.7 5.7 5.8 5.9
6.4 6.2 5.9 6.2 6.0 6.3 6.5 6.9 6.7 6.3 6.1 6.0 5.7 5.5 5.3 5.2 5.8 5.9 6.2 6.3 6.5 6.6 6.6 6.9 6.8 6.3 6.4 5.8 5.4 5.4 5.1 5.6 5.6 5.7 5.0 5.4 5.1 5.2 5.5 5.7 5.7 5.7 5.6 5.6 5.6 5.6 5.6 5.6 5.8
6.3 5.7 5.8 6.3 6.1 5.8 6.4 7.1 6.8 6.5 6.1 6.0 5.6 5.4 5.5 5.8 6.3 6.4 7.1 7.1 7.1 7.3 7.3 7.2 7.4 7.0 7.0 6.3 5.7 5.3 5.7 5.7 5.6 5.4 5.3 5.1 5.5 5.3 5.4 5.5 5.4 5.5 5.5 5.6 5.6 5.6 5.6 5.5 5.2
6.2 5.9 5.9 5.6 6.4 6.3 5.8 6.8 6.4 6.1 6.1 6.0 5.9 5.7 5.9 6.2 6.5 7.0 7.6 7.8 7.8 7.8 7.7 7.5 7.4 7.2 7.3 7.1 6.2 5.7 5.4 5.5 5.6 4.9 5.6 5.3 5.3 5.0 5.1 5.4 5.2 5.3 5.4 5.2 5.3 5.3 5.3 5.3 5.3
6.3 6.3 6.2 6.1 5.6 5.5 5.9 5.5 7.0 6.6 6.2 6.1 6.0 6.2 6.4 6.9 7.0 7.4 7.5 7.8 8.0 7.9 7.8 7.7 7.4 7.4 7.4 7.2 6.7 6.2 5.9 6.1 5.8 5.5 5.4 4.9 5.1 4.9 4.6 5.1 5.2 5.2 5.1 5.1 5.1 5.2 5.2 5.1 5.3
6.4 6.4 6.3 6.2 5.7 5.5 6.0 5.8 7.4 7.2 6.7 6.8 6.8 6.8 6.7 6.8 6.9 7.3 7.5 7.5 7.8 7.9 8.0 7.9 7.6 7.5 7.5 7.1 6.8 6.5 6.1 6.1 6.3 5.9 6.1 5.5 4.8 5.1 4.5 4.7 5.1 5.4 5.2 5.1 5.1 5.2 5.3 5.3 5.3
6.4 6.6 6.4 6.0 5.8 5.2 6.3 6.3 7.1 7.0 6.8 6.7 6.8 6.9 6.6 6.6 6.3 7.0 7.2 7.4 7.7 7.9 8.0 8.0 7.8 7.8 7.8 7.3 6.9 6.5 6.5 6.8 6.6 6.0 6.0 5.4 5.6 4.8 3.8 4.8 4.8 5.0 5.3 5.3 5.3 5.3 5.4 5.3 5.4
6.3 6.3 6.1 5.3 5.3 5.7 6.5 6.3 7.0 7.0 6.8 6.7 6.6 6.6 6.7 6.3 6.5 7.0 7.4 7.6 7.6 7.8 8.1 8.3 8.2 8.0 7.7 7.8 7.3 6.9 7.0 7.4 7.1 6.4 6.0 5.4 5.4 5.4 4.7 4.5 4.6 4.8 4.8 5.1 5.9 5.8 5.8 5.5 5.4
6.3 6.0 5.8 4.9 4.9 5.3 6.4 6.2 7.4 7.2 6.9 6.6 6.6 6.6 6.7 6.6 6.7 7.2 7.3 7.5 7.4 7.6 7.6 7.8 8.0 7.5 7.6 7.7 7.4 7.2 7.5 6.9 6.9 6.4 6.4 5.6 5.2 5.4 4.8 5.0 4.3 4.5 5.2 5.3 5.3 5.7 5.9 5.7 5.7
6.0 6.1 5.9 5.8 5.9 5.6 6.3 7.0 7.2 6.9 6.8 7.0 6.8 6.6 6.5 6.7 6.9 7.2 7.2 7.2 7.2 7.4 7.4 7.5 7.8 8.1 8.0 7.8 7.4 7.1 7.1 7.1 6.8 6.6 5.6 6.0 5.6 5.1 4.5 4.7 4.4 4.8 5.0 4.7 5.0 5.5 6.2 6.2 6.2
6.2 6.1 5.9 5.9 5.1 5.6 6.6 7.2 7.3 7.2 6.9 6.4 6.6 6.6 6.7 6.9 7.1 7.1 7.0 7.0 7.1 7.2 7.3 7.5 7.8 7.8 7.8 7.7 7.4 7.2 7.1 7.0 6.6 6.5 6.5 6.3 5.5 4.9 4.5 3.9 5.0 5.2 4.9 5.0 4.7 4.7 5.2 5.6 6.1
6.2 6.1 6.3 6.3 6.3 5.4 4.8 6.6 7.0 6.9 6.4 6.0 6.2 6.4 6.5 6.7 6.9 7.2 7.2 6.9 7.0 7.1 7.2 7.3 7.4 7.5 7.5 7.5 7.4 7.3 7.1 6.8 5.9 6.2 6.0 5.9 4.9 4.3 3.9 4.3 4.9 5.0 4.6 4.6 4.7 4.9 4.7 5.0 5.4
6.3 6.2 6.4 6.4 6.4 6.1 6.0 5.8 7.1 6.5 6.4 6.2 6.3 6.5 6.5 6.8 6.8 6.9 7.1 7.2 6.9 7.0 7.1 7.2 7.3 7.4 7.2 7.2 7.0 7.0 6.9 6.4 6.3 6.2 5.8 5.3 4.8 4.6 4.4 5.3 5.3 5.2 5.2 5.3 5.5 5.3 5.0 5.2 5.6
Wind_Speed
17 16 4 2 1 3 6 8 9 9 5 6 7 5 4 12 8 5 4 10 8 17 20 19 20 19 19 20 18 18 16 15 18 17 14 15 17 15 12 12 13 13 13 12 12 11 12 13 12
11 12 2 3 2 5 6 7 6 9 6 8 9 8 3 6 9 5 6 13 8 16 20 18 19 19 18 20 18 16 14 13 12 13 11 9 11 13 11 12 13 13 12 12 12 12 12 13 13
9 5 2 3 4 5 5 11 10 7 8 9 7 6 5 4 9 3 7 11 14 15 21 18 19 19 18 19 19 16 14 14 14 13 13 13 11 11 11 12 13 13 12 12 13 12 14 15 15
3 1 4 3 8 3 6 9 9 9 6 8 8 3 6 6 3 7 6 8 12 13 20 24 21 20 20 19 22 17 15 15 15 15 13 15 13 12 12 13 13 13 12 13 13 14 15 15 18
2 3 1 2 8 1 10 9 8 8 5 7 7 7 5 7 9 9 7 8 10 3 17 25 21 21 21 19 20 17 15 15 15 15 15 14 14 13 12 12 12 12 13 13 14 16 15 15 15
2 2 3 5 8 6 9 9 8 6 9 8 4 9 2 10 10 9 8 8 8 10 16 21 25 21 21 20 19 16 15 15 15 15 16 15 13 13 13 13 13 13 13 14 15 16 16 16 12
3 1 4 6 7 6 6 8 7 7 8 4 6 5 3 12 8 8 9 8 7 8 7 14 21 21 21 23 21 16 16 15 15 15 15 14 14 14 14 13 14 14 15 15 16 17 17 13 10
3 2 3 5 6 4 4 3 3 1 6 10 4 4 3 7 7 6 6 7 8 5 6 8 12 18 18 17 27 19 17 17 14 15 15 17 15 14 14 13 14 15 16 16 18 17 16 12 10
2 2 3 5 5 6 7 7 5 6 6 7 7 8 10 8 6 7 5 2 4 6 6 5 9 13 16 16 19 22 19 17 16 16 20 19 14 14 15 15 14 15 16 17 18 17 15 12 10
4 2 6 4 6 7 9 8 8 6 7 7 9 6 4 7 8 7 6 6 2 1 6 5 6 8 14 15 17 17 17 13 12 14 15 16 18 16 15 17 16 16 14 16 18 17 16 13 9
6 4 5 3 6 6 8 9 9 9 6 9 9 9 8 6 7 7 8 5 7 4 1 4 6 7 9 10 14 13 14 13 13 16 17 16 15 16 15 16 14 15 14 14 17 16 14 13 10
3 2 3 5 6 5 8 9 7 9 8 8 9 8 5 6 6 7 7 6 6 7 3 3 6 7 8 10 8 12 10 14 12 15 18 10 10 11 11 11 13 13 13 13 15 12 11 17 11
2 7 6 6 7 7 6 6 9 12 11 5 5 6 6 8 9 9 8 7 6 6 6 5 6 7 10 10 8 8 10 12 15 17 18 15 9 5 11 10 13 13 16 14 12 8 9 9 11
5 6 8 4 6 5 7 9 6 6 8 7 6 6 8 9 8 6 7 7 7 7 7 8 7 6 10 12 13 10 12 15 15 17 16 20 15 8 7 6 8 9 16 15 12 9 6 6 11
5 5 6 6 1 3 6 6 7 6 4 7 8 8 8 7 8 8 7 8 8 6 7 6 8 9 10 10 10 5 9 9 8 14 20 19 20 12 9 5 4 9 13 13 12 10 11 6 8
4 3 3 6 5 4 2 7 10 5 9 6 7 7 6 4 3 5 5 6 7 6 7 7 6 8 9 8 5 2 4 4 6 15 18 21 19 17 11 4 5 11 12 11 6 5 5 5 5
5 4 7 6 6 2 3 10 7 15 8 5 7 7 5 6 8 6 6 6 6 7 7 7 6 9 9 6 4 4 2 3 6 6 10 16 19 16 11 6 8 14 9 6 5 3 5 5 4
5 5 6 8 3 4 9 16 9 14 6 4 7 7 7 6 4 5 8 7 6 6 7 7 6 7 8 6 4 5 9 6 9 6 1 9 9 15 13 9 10 12 4 5 5 5 3 4 5
6 7 10 9 4 9 6 16 13 9 2 6 6 6 5 6 7 8 7 8 7 6 7 7 7 6 7 4 4 5 6 11 4 4 2 11 9 7 10 7 7 9 5 6 7 5 6 3 5
7 10 8 6 3 11 9 20 14 8 5 2 4 4 6 7 8 7 7 9 11 8 7 8 8 7 8 6 4 5 10 8 7 5 7 6 13 7 9 7 5 6 5 6 5 6 4 4 4
6 5 6 7 14 8 7 6 4 5 5 7 8 3 5 6 8 7 7 8 10 11 9 7 8 9 11 12 10 8 9 8 8 5 7 4 9 3 6 9 7 6 5 5 5 5 9 8 3
5 6 8 9 7 3 6 4 6 7 7 8 6 4 5 6 7 6 6 11 11 12 11 8 7 13 14 17 15 19 13 13 10 11 9 6 10 7 9 11 9 6 5 7 5 6 5 5 4
7 11 10 6 5 5 2 2 6 0 1 5 5 5 5 6 7 6 7 10 12 10 10 7 5 12 15 15 16 13 12 9 10 9 13 12 8 10 6 8 9 7 5 6 7 6 7 4 4
9 8 9 5 3 1 3 4 5 2 4 6 6 7 6 8 7 6 6 11 11 12 8 6 10 12 14 14 15 16 16 16 13 12 11 9 10 8 7 10 8 8 7 8 6 6 8 6 5
6 6 3 4 1 4 6 2 9 8 5 2 6 8 8 7 7 6 8 11 11 14 5 5 9 8 10 12 14 15 16 20 21 18 13 15 11 11 10 10 9 7 9 9 9 6 6 6 6
3 4 3 3 3 5 4 5 5 1 7 7 7 8 9 9 7 6 9 10 9 11 1 6 7 8 8 10 11 11 14 10 11 14 12 11 9 12 12 10 8 8 12 11 11 7 6 8 7
2 1 4 3 6 2 4 6 5 6 6 8 8 8 9 8 7 7 8 9 9 9 8 6 8 9 9 10 9 11 12 13 13 13 11 9 12 11 13 11 10 8 12 11 10 8 9 9 7
3 3 0 2 3 5 6 7 2 7 7 7 6 7 7 7 8 10 5 8 9 9 8 5 6 9 10 11 11 11 11 12 12 11 13 13 11 12 14 12 11 11 9 11 12 10 10 11 6
2 3 4 2 2 2 4 5 3 3 3 6 5 5 8 11 9 8 5 6 8 9 7 3 5 8 9 10 10 11 10 11 12 10 9 8 9 12 13 12 12 11 9 9 11 10 10 11 9
2 5 2 3 4 3 3 7 7 5 1 4 6 6 6 5 6 8 8 6 7 8 10 4 3 6 9 9 9 8 11 11 10 10 11 12 12 13 13 14 14 13 11 10 10 10 9 10 8
Wind_Direction
314 303 298 311 229 225 242 237 246 312 57 8 323 346 47 32 29 75 50 4 358 134 151 162 167 165 163 157 139 124 127 130 129 125 128 125 122 114 125 120 117 115 113 114 116 119 121 123 122
304 294 259 265 232 236 231 269 353 49 44 346 348 347 271 82 15 68 22 332 316 139 148 170 173 164 162 140 130 128 135 139 135 139 129 132 117 119 135 126 122 118 116 116 117 119 120 124 126
268 268 280 211 208 244 264 48 23 10 57 32 2 2 40 12 45 30 351 323 308 142 149 169 177 166 150 141 139 144 157 151 146 143 138 135 140 138 137 132 123 119 117 118 118 121 123 127 125
327 251 286 286 276 280 70 41 9 352 60 46 16 55 96 73 58 2 356 315 302 146 155 156 172 164 153 149 140 147 157 157 149 146 144 142 145 145 135 124 123 123 124 125 122 125 125 122 111
217 258 275 233 272 276 83 40 7 341 15 352 11 1 87 82 58 5 24 336 330 194 145 149 162 165 150 150 136 150 164 161 153 149 150 149 145 140 137 130 129 129 129 127 131 125 119 114 112
276 239 269 230 230 82 79 37 359 334 2 349 10 351 79 77 47 5 35 353 345 334 142 149 153 160 152 142 138 160 166 162 159 156 155 153 149 145 138 138 136 134 132 131 136 127 117 108 115
284 276 279 337 337 40 49 19 31 7 319 3 346 328 307 56 50 17 39 355 348 20 133 151 153 158 155 145 148 170 165 161 163 164 159 147 149 144 143 142 141 138 135 136 131 118 114 116 114
298 295 300 82 9 46 98 16 113 317 309 347 304 257 299 31 16 33 53 23 341 1 339 158 152 154 155 155 152 167 160 157 172 161 145 131 142 142 143 145 143 142 135 137 126 119 123 118 109
265 282 27 38 355 358 15 8 327 356 273 268 252 285 301 324 23 4 14 13 10 331 329 297 156 163 156 155 158 155 159 164 164 140 131 131 139 146 145 141 143 136 138 138 129 128 124 116 118
5 313 24 7 343 341 336 338 328 307 315 312 288 251 319 356 10 348 312 308 202 299 312 297 178 186 158 160 159 152 158 168 144 135 139 159 155 154 134 126 124 128 140 142 131 133 135 122 128
332 16 17 344 6 346 319 304 331 313 282 285 326 331 335 348 333 313 311 275 287 161 207 320 205 198 168 168 166 157 156 168 148 150 164 187 155 132 128 131 128 129 132 130 128 152 163 140 152
279 112 321 315 333 322 301 299 290 269 272 302 307 295 295 316 297 291 288 291 302 317 166 218 196 209 169 172 176 167 163 168 168 168 183 187 137 137 139 140 143 148 139 135 153 181 196 154 175
336 352 314 302 319 302 302 283 279 288 276 268 1 331 289 255 249 252 258 268 239 264 248 194 191 211 184 174 204 172 175 173 173 163 181 151 138 139 149 162 152 170 155 162 176 181 125 140 123
338 298 281 280 290 310 325 298 320 276 314 324 319 284 271 272 283 288 282 260 262 262 251 202 186 191 192 196 191 188 175 178 168 160 170 145 153 160 166 151 149 160 155 171 156 139 137 123 113
271 287 256 204 278 326 340 292 192 257 325 316 304 312 300 273 268 261 253 252 249 256 268 203 193 184 197 215 204 205 182 176 159 159 154 151 158 163 146 137 135 152 158 150 140 130 119 103 112
234 219 296 158 173 149 25 271 345 339 313 321 309 281 276 305 303 291 291 291 287 259 247 272 194 186 197 205 209 194 226 144 170 158 157 146 153 166 145 135 140 153 138 130 117 119 109 112 112
229 318 335 344 190 219 153 287 285 301 291 285 289 288 349 8 11 8 349 330 291 259 249 226 254 187 187 202 176 122 49 268 71 357 142 141 152 160 139 136 141 136 123 114 121 106 119 114 104
335 330 336 297 57 2 295 277 296 297 280 272 276 9 356 357 340 355 343 338 301 299 291 224 224 186 175 187 128 105 94 62 63 112 152 110 140 153 139 133 133 136 131 129 125 132 123 128 130
308 290 293 293 69 318 276 289 284 291 184 243 27 315 322 352 6 358 344 321 298 277 271 260 218 196 159 122 146 131 140 119 82 33 275 93 116 154 129 126 135 138 141 148 142 128 126 98 113
275 270 290 329 345 329 304 294 281 248 186 138 265 285 16 2 353 332 348 346 328 302 261 243 232 190 150 148 112 116 137 118 114 134 82 87 115 145 131 131 141 140 136 137 130 125 116 100 97
305 324 359 298 323 278 309 279 188 149 167 199 239 89 35 22 333 322 347 335 316 301 280 243 217 159 144 124 113 110 106 113 125 128 117 133 115 104 141 141 140 138 127 131 122 123 130 145 71
299 24 330 312 342 297 28 288 314 174 207 186 227 62 29 357 308 314 358 326 311 299 277 258 222 155 145 141 141 149 152 155 160 166 147 149 125 129 168 145 129 119 122 127 128 130 121 120 134
264 347 293 282 298 336 155 110 272 39 165 359 7 14 19 317 311 351 353 315 307 302 275 244 190 158 151 152 154 158 160 153 159 159 141 144 133 130 190 140 136 128 127 127 128 133 136 134 145
298 289 287 203 220 354 103 79 282 20 31 353 4 340 325 304 339 27 343 322 316 312 283 243 152 163 153 155 161 165 163 155 154 159 155 156 145 144 170 129 110 112 128 131 136 137 136 136 120
320 319 338 345 335 240 157 317 246 285 49 9 346 328 329 342 350 18 344 335 324 328 3 87 131 138 156 165 171 169 167 165 162 164 164 159 160 147 153 138 140 146 134 132 127 118 109 115 112
298 334 132 264 298 287 325 222 249 109 68 46 11 353 348 344 343 17 350 329 325 328 25 101 119 140 155 173 171 169 169 174 167 170 165 160 156 146 145 128 125 123 118 119 113 104 102 101 104
353 42 354 289 261 255 235 250 306 77 34 23 354 355 348 339 342 12 339 336 328 335 323 151 152 152 161 158 154 157 164 169 168 163 162 155 145 148 137 129 131 122 118 119 106 102 100 91 86
252 334 215 234 310 304 293 305 254 21 9 332 357 0 345 326 349 337 334 336 335 330 333 174 166 164 163 164 164 166 163 166 165 161 156 147 151 141 128 130 126 117 112 110 108 107 105 105 103
191 240 214 189 226 255 311 264 81 35 328 313 12 4 341 341 341 346 335 340 341 337 333 283 171 163 161 165 162 159 156 151 149 140 135 140 122 119 115 118 107 106 107 104 108 107 108 104 102
279 278 287 116 289 235 175 266 258 162 254 35 23 15 9 3 348 351 343 343 354 348 341 303 186 170 166 154 145 146 143 140 142 139 117 114 116 110 115 112 109 111 107 98 93 94 89 99 97